Regional Weather Roundup
Issued by NWS Jackson, KY

Home | Current Version | Previous Version | Graphics & Text | Print | Product List | Glossary On
Versions: 1 2 3 4 5 6 7 8 9 10 11 12 13 14 15 16 17 18 19 20 21 22 23 24 25 26 27 28 29 30 31 32 33 34 35 36 37 38 39 40 41 42 43 44 45 46 47 48 49 50
000
ASUS43 KJKL 021210
RWRJKL

EAST KENTUCKY HOURLY WEATHER ROUNDUP
NATIONAL WEATHER SERVICE JACKSON KY
700 AM EST MON MAR 02 2015

NOTE: "FAIR" INDICATES FEW OR NO CLOUDS BELOW 12,000 FEET WITH
NO SIGNIFICANT WEATHER AND/OR OBSTRUCTIONS TO VISIBILITY.

* THESE REPORTS ARE NOT UNDER NWS QUALITY CONTROL AND MAY NOT
  REPORT WEATHER SUCH AS PRECIPITATION AND FOG.

KYZ079-080-083-085-087-088-110-112-115-119-120-021300
...EASTERN KENTUCKY...

CITY           SKY/WX    TMP DP  RH WIND       PRES   REMARKS
JACKSON        CLOUDY    31  30  96 VRB6      30.41R FOG     WCI  25
6HR MIN TEMP:  31; 6HR MAX TEMP:  38; 6HR PCP:  0.05;

LONDON         CLOUDY    33  29  85 N12       30.42R WCI  24
6HR MIN TEMP:  33; 6HR MAX TEMP:  42; 6HR PCP:  0.12;

SOMERSET*      CLOUDY    32  32 100 N6        30.46R FOG     WCI  26
MONTICELLO*    CLOUDY    33  32  96 N8        30.47R FOG     WCI  26
6HR MIN TEMP:  33; 6HR MAX TEMP:  39; 6HR PCP:  0.20;

MIDDLESBORO*   CLOUDY    36  33  88 N8        30.40R WCI  30
6HR MIN TEMP:  34; 6HR MAX TEMP:  40; 6HR PCP:  0.12;

HAZARD APT*    CLOUDY    34  34 100 N3        30.42R FOG
BLACK MTN*       N/A     30  28  93 N5          N/A  WCI  25
BIG SANDY*     CLOUDY    33  32  96 N5        30.41R WCI  28
6HR MIN TEMP:  32; 6HR MAX TEMP:  41;

MOREHEAD APT*  MOSUNNY   27  19  74 NW9       30.47R WCI  17
$$

KYZ035-036-041-042-044-050-067-078-099-021300
...CENTRAL KENTUCKY...

CITY           SKY/WX    TMP DP  RH WIND       PRES   REMARKS
MT STERLING*   MOCLDY    28  23  80 N7        30.47R WCI  21
FLEMING/MASON* CLEAR     23  18  80 NW6       30.48R WCI  16
DANVILLE*      CLOUDY    30  28  93 N9        30.47R WCI  22
RICHMOND*      CLOUDY    30  25  80 N7        30.45R WCI  23
LEXINGTON      PTCLDY    25  18  74 N16       30.47R WCI  12
6HR MIN TEMP:  25; 6HR MAX TEMP:  33; 6HR PCP: TRACE;

FRANKFORT      PTCLDY    26  19  74 N3        30.48R
6HR MIN TEMP:  26; 6HR MAX TEMP:  33;

$$

KYZ091>093-OHZ055-061-077-WVZ005-015-034-035-042-021300
...SOUTHERN OHIO/WEST VIRGINIA...

CITY           SKY/WX    TMP DP  RH WIND       PRES   REMARKS
COVINGTON      MOCLDY    22  16  78 NW7       30.47R WCI  13
COLUMBUS       MOCLDY    20  13  74 NW9       30.43R WCI   9
DAYTON         CLOUDY    17  12  80 NW8       30.45R WCI   7
WILMINGTON     CLOUDY    20  14  77 NW8       30.45R WCI  10
HUNTINGTON     MOCLDY    30  25  81 NW6       30.43R WCI  24
CHARLESTON     CLOUDY    33  28  81 NW10      30.40R WCI  25
PINEVILLE*     MIX PCPN  37  37 100 MISG      30.38R
BECKLEY        MIX PCPN  32  30  92 NW10      30.28R FOG     WCI  24
BLUEFIELD      CLOUDY    36  32  85 W16G28    30.25R WCI  26
$$

VAZ002-007-008-TNZ017-027-036-066-071-021300
...SOUTHWEST VIRGINIA/EAST TENNESSEE...

CITY           SKY/WX    TMP DP  RH WIND       PRES   REMARKS
WISE*          CLOUDY    34  34 100 NW8       30.32R FOG     WCI  27
JONESVILLE*    CLOUDY    37  37 100 NW6       30.38R WCI  33
ABINGDON*      LGT RAIN  41  41 100 NW5       30.30R
BRISTOL        LGT RAIN  42  42 100 NW5       30.32R FOG
KNOXVILLE      CLOUDY    43  41  93 N9        30.36R
OAK RIDGE      CLOUDY    42  38  85 VRB5      30.38R
CROSSVILLE     CLOUDY    35  33  92 N8        30.36S FOG     WCI  29
NASHVILLE      CLOUDY    33  30  88 N9        30.48R WCI  25
$$

...KEY TO REMARKS...
VSB - VISIBILITY IN MILES
WCI - WIND CHILL INDEX
HX  - HEAT INDEX

$$


USA.gov is the U.S. government's official web portal to all federal, state and local government web resources and services.